Location: Larrial
(48.2758°N, 4.5331°W)
Time: 00:18:32
(UTC+00:00)

XW-2F - Pass Details

Date: 03 December 2021
Orbit: 495 x 515 km, 97.5° (Epoch: 16 January)

Event Time Altitude Azimuth Distance (km) Brightness Sun altitude
Rises 05:48:40 0° 24° (NNE) 2,652 ? -19.4°
Reaches altitude 10° 05:51:06 10° 39° (NE) 1,758 ? -19.1°
Maximum altitude 05:54:12 24° 94° (E) 1,116 ? -18.5°
Drops below altitude 10° 05:57:17 10° 149° (SSE) 1,742 ? -18.0°
Sets 05:59:40 0° 164° (SSE) 2,621 ? -17.7°
